Вернуться в каталог

METEOR 2-15

АктивенПогодаPO
NORAD 17290·PAYLOAD·🇷🇺 Russia

Запущен Jan 5, 1987 с Plesetsk Cosmodrome

Loading…

Ближайшие Пролёты (ближайшие 24 часа)

TLE

СвежийSource: Space-Track

Эпоха: Sep 14, 2026, 18:37 UTC

1 17290U 87001A   26257.77599533  .00000042  00000-0  23891-4 0  9998
2 17290  82.4695  23.8266 0011723 283.0924  76.8928 13.85274917  6221

Отслеживайте METEOR 2-15 в реальном времени с AllMySat

Download on the App Store